Regional Weather Roundup
Issued by NWS Kansas City/Pleasant Hill, MO

Home | Current Version | Previous Version | Text Only | Print | Product List | Glossary On
Versions: 1 2 3 4 5 6 7 8 9 10 11 12 13 14 15 16 17 18 19 20 21 22 23 24 25 26 27
000
ASUS43 KEAX 290010
RWREAX

WEATHER ROUNDUP FOR EASTERN KANSAS AND NORTHWEST MISSOURI
NATIONAL WEATHER SERVICE KANSAS CITY/PLEASANT HILL MO
700 PM CDT SUN AUG 28 2016

KSZ040-057-103>105-MOZ028-029-037-043-290100-
...KANSAS CITY METROPOLITAN AREA...

CITY           SKY/WX    TMP DP  RH WIND       PRES   REMARKS
K.C. INTL      PTCLDY    86  69  56 E7        30.07S HX  90
6HR MIN TEMP:  86; 6HR MAX TEMP:  90;

K.C. DOWNTOWN  PTCLDY    87  70  56 E5        30.05S HX  92
6HR MIN TEMP:  87; 6HR MAX TEMP:  92;

LEES SUMMIT    PTCLDY    85  72  65 E5        30.08R HX  91
6HR MIN TEMP:  85; 6HR MAX TEMP:  89;

OLATHE - IXD   CLEAR     85  71  63 SE5       30.07S HX  90
6HR MIN TEMP:  84; 6HR MAX TEMP:  89;

OLATHE - OJC   PTCLDY    83  70  64 SE6       30.07S
6HR MIN TEMP:  83; 6HR MAX TEMP:  87;

LAWRENCE       SUNNY     84  73  69 SE6       30.05S HX  90

$$

MOZ001>008-011>017-020>025-030>033-038>040-044>046-053-054-290100-
...NORTHERN AND CENTRAL MISSOURI...

CITY           SKY/WX    TMP DP  RH WIND       PRES   REMARKS
ST. JOSEPH     PTCLDY    78  71  79 N8        30.07F
6HR MIN TEMP:  77; 6HR MAX TEMP:  88;

MOSBY          CLEAR     86  73  66 E6        30.07S HX  93
WHITEMAN AFB   PTCLDY    83  72  69 NE3       30.07R
6HR MIN TEMP:  82; 6HR MAX TEMP:  90; 6HR PCP: TRACE;

CLINTON        PTCLDY    82  73  74 CALM      30.07R
SEDALIA        CLEAR     86  73  65 CALM      30.09R HX  93
6HR MIN TEMP:  84; 6HR MAX TEMP:  92;

WARSAW         NOT AVBL
CHILLICOTHE    NOT AVBL
KIRKSVILLE     PTCLDY    79  69  71 E5        30.12R
6HR MIN TEMP:  79; 6HR MAX TEMP:  89;


$$

MOZ041-047>049-056>058-063>065-088>090-097-290100-
...EASTERN AND SOUTHERN MISSOURI...

CITY           SKY/WX    TMP DP  RH WIND       PRES   REMARKS
ST. LOUIS INTL PTCLDY    91  69  48 E10       30.08S HX  96
6HR MIN TEMP:  91; 6HR MAX TEMP:  96;

SPIRIT OF STL  PTCLDY    86  76  71 CALM      30.06S HX  96
COLUMBIA       CLEAR     85  73  67 SE5       30.08S HX  91
JEFFERSON CITY CLEAR     86  72  62 E5        30.06R HX  92
ROLLA          CLEAR     84  72  67 E5        30.09S
OSAGE BEACH    CLEAR     85  73  67 SE3       30.08S HX  91
SPRINGFIELD    CLEAR     87  67  51 SE8       30.07S HX  90
BRANSON        MOCLDY    84  72  65 SE6       30.09S
JOPLIN         CLEAR     87  68  52 CALM      30.05S HX  90
WEST PLAINS    CLEAR     84  70  62 E3        30.11R

$$

IAZ060-094-KSZ022-034>040-054-083-096-NEZ052-066-093-290100-
...KANSAS...SOUTHEAST NEBRASKA AND IOWA...

CITY           SKY/WX    TMP DP  RH WIND       PRES   REMARKS
TOPEKA         MOSUNNY   85  73  67 E3        30.06R HX  91
6HR MIN TEMP:  84; 6HR MAX TEMP:  90;

MANHATTAN      MOSUNNY   86  72  62 S7        30.05R HX  92
EMPORIA        MOSUNNY   76  67  73 SE7       30.07R
CHANUTE        SUNNY     85  72  65 CALM      30.05R HX  91
WICHITA        CLOUDY    79  68  69 W6        30.06F
OMAHA          MOSUNNY   78  67  68 SE18      30.09R
LINCOLN        SUNNY     80  68  66 SE13G23   30.08R
FALLS CITY     CLOUDY    76  70  82 E5        30.08F
LAMONI         CLOUDY    72  70  93 CALM      30.11F
DES MOINES     CLOUDY    77  69  76 NW3       30.10F

$$





USA.gov is the U.S. government's official web portal to all federal, state and local government web resources and services.